Location: Göttingen
(51.5413°N, 9.9158°E)
Time: 03:23:15
(UTC+02:00)

Envisat - Pass Details

Date: 27 January 2022
Orbit: 764 x 765 km, 98.2° (Epoch: 28 May)

Event Time Altitude Azimuth Distance (km) Brightness Sun altitude
Rises 04:40:18 0° 20° (NNE) 3,243 6.6 -31.8°
Reaches altitude 10° 04:42:47 10° 28° (NNE) 2,312 5.9 -31.4°
Maximum altitude 04:47:30 37° 96° (E) 1,171 4.3 -30.7°
Drops below altitude 10° 04:52:12 10° 164° (SSE) 2,297 5.5 -30.0°
Sets 04:54:39 0° 172° (S) 3,218 6.2 -29.6°
